Soldotna, AK

10:55 AM AKDT on April 29, 2017 (GMT -0800)
Soldotna

Weather History for PASX - August, 2012

Change the Weather History Date:

Thursday, August 30, 2012

  Actual Average Record
Temperature  
Mean Temperature 52 °F -  
Max Temperature 57 °F 59 °F 69 °F (1974)
Min Temperature 46 °F 43 °F 30 °F (1955)
Degree Days  
Heating Degree Days 14    
Growing Degree Days 2 (Base 50)    
Moisture  
Dew Point 47 °F    
Average Humidity 85    
Maximum Humidity 100    
Minimum Humidity 67    
Precipitation  
Precipitation 0.00 in - - ()
Sea Level Pressure  
Sea Level Pressure 29.80 in    
Wind  
Wind Speed 2 mph (NNW)    
Max Wind Speed 9 mph    
Max Gust Speed -    
Visibility 10 miles    
Events      
Averages and records for this station are not official NWS values.
T = Trace of Precipitation, MM = Missing Value Source: NWS Daily Summary

Daily Weather History Graph

Daily Weather History Graph

Search for Another Location

Airport or City:

Trip Planner

Search our weather history database for the weather conditions in past years. The results will help you decide how hot, cold, wet, or windy it might be!

Date:

Astronomy

Aug. 30, 2012 Rise Set
Actual Time 6:54 AM AKDT 9:12 PM AKDT
Civil Twilight 6:08 AM AKDT 9:58 PM AKDT
Nautical Twilight 5:07 AM AKDT 10:58 PM AKDT
Astronomical Twilight 3:44 AM AKDT 12:19 AM AKDT
Moon 8:20 PM AKDT (8/30) 6:08 AM AKDT (8/30)
Length of Visible Light 15h 50m
Length of Day
14h 17m
Waxing Gibbous, 99% of the Moon is Illuminated
Aug 30
Waxing Gibbous
Aug 31
Full
Sep 8
Last Quarter
Sep 15
New
Sep 22
First Quarter

Hourly Weather History & Observations

Time (AKDT) Temp. Dew Point Humidity Pressure Visibility Wind Dir Wind Speed Gust Speed Precip Events Conditions
12:16 AM 46.4 °F 42.8 °F 87% 29.93 in 10.0 mi Calm Calm - N/A   Overcast
12:36 AM 46.4 °F 42.8 °F 87% 29.93 in 10.0 mi Calm Calm - N/A   Overcast
12:56 AM 46.4 °F 42.8 °F 87% 29.93 in 10.0 mi Calm Calm - N/A   Overcast
1:16 AM 48.2 °F 44.6 °F 87% 29.92 in 10.0 mi Calm Calm - N/A   Overcast
1:36 AM 48.2 °F 42.8 °F 82% 29.91 in 10.0 mi East 6.9 mph - N/A   Overcast
1:56 AM 48.2 °F 42.8 °F 82% 29.91 in 10.0 mi Calm Calm - N/A   Overcast
2:16 AM 48.2 °F 44.6 °F 87% 29.91 in 10.0 mi Calm Calm - N/A   Overcast
2:36 AM 48.2 °F 44.6 °F 87% 29.92 in 10.0 mi Calm Calm - N/A   Overcast
2:56 AM 48.2 °F 44.6 °F 87% 29.90 in 10.0 mi East 5.8 mph - N/A   Overcast
3:16 AM 48.2 °F 44.6 °F 87% 29.90 in 10.0 mi Calm Calm - N/A   Overcast
3:36 AM 48.2 °F 44.6 °F 87% 29.89 in 10.0 mi East 3.5 mph - N/A   Overcast
3:56 AM 48.2 °F 44.6 °F 87% 29.89 in 10.0 mi Calm Calm - N/A   Overcast
4:16 AM 48.2 °F 44.6 °F 87% 29.88 in 10.0 mi Calm Calm - N/A   Overcast
4:36 AM 50.0 °F 44.6 °F 82% 29.87 in 10.0 mi Calm Calm - N/A   Overcast
4:56 AM 48.2 °F 44.6 °F 87% 29.86 in 10.0 mi Calm Calm - N/A   Overcast
5:16 AM 50.0 °F 46.4 °F 87% 29.85 in 10.0 mi Calm Calm - N/A   Overcast
5:36 AM 50.0 °F 44.6 °F 82% 29.85 in 10.0 mi Calm Calm - N/A   Overcast
5:56 AM 48.2 °F 46.4 °F 93% 29.84 in 10.0 mi Calm Calm - N/A   Overcast
6:16 AM 48.2 °F 46.4 °F 93% 29.84 in 10.0 mi Calm Calm - N/A   Overcast
6:36 AM 50.0 °F 46.4 °F 87% 29.83 in 10.0 mi Calm Calm - N/A   Overcast
6:56 AM 50.0 °F 44.6 °F 82% 29.82 in 10.0 mi Calm Calm - N/A   Overcast
7:36 AM 50.0 °F 46.4 °F 87% 29.82 in 10.0 mi West 4.6 mph - N/A   Overcast
7:56 AM 50.0 °F 46.4 °F 87% 29.82 in 10.0 mi West 3.5 mph - N/A   Overcast
8:16 AM 50.0 °F 46.4 °F 87% 29.82 in 10.0 mi SW 4.6 mph - N/A   Overcast
8:36 AM 51.8 °F 46.4 °F 82% 29.81 in 10.0 mi SSW 3.5 mph - N/A   Overcast
8:56 AM 51.8 °F 48.2 °F 88% 29.80 in 10.0 mi Calm Calm - N/A   Overcast
9:16 AM 51.8 °F 48.2 °F 88% 29.80 in 10.0 mi Calm Calm - N/A   Overcast
9:36 AM 51.8 °F 48.2 °F 88% 29.79 in 10.0 mi NE 4.6 mph - N/A   Overcast
9:56 AM 51.8 °F 48.2 °F 88% 29.79 in 10.0 mi Calm Calm - N/A   Overcast
10:16 AM 53.6 °F 50.0 °F 88% 29.79 in 10.0 mi Calm Calm - N/A   Overcast
10:36 AM 55.4 °F 51.8 °F 88% 29.78 in 10.0 mi NW 3.5 mph - N/A   Overcast
10:56 AM 55.4 °F 50.0 °F 82% 29.78 in 10.0 mi NNW 3.5 mph - N/A   Mostly Cloudy
11:16 AM 55.4 °F 50.0 °F 82% 29.77 in 10.0 mi NW 4.6 mph - N/A   Mostly Cloudy
11:36 AM 57.2 °F 48.2 °F 72% 29.77 in 10.0 mi North 4.6 mph - N/A   Overcast
11:56 AM 57.2 °F 48.2 °F 72% 29.77 in 10.0 mi WNW 6.9 mph - N/A   Overcast
12:16 PM 57.2 °F 50.0 °F 77% 29.76 in 10.0 mi WNW 6.9 mph - N/A   Overcast
12:36 PM 57.2 °F 50.0 °F 77% 29.76 in 10.0 mi WNW 6.9 mph - N/A   Overcast
12:56 PM 57.2 °F 51.8 °F 82% 29.76 in 10.0 mi WNW 9.2 mph - N/A   Overcast
1:36 PM 57.2 °F 51.8 °F 82% 29.76 in 10.0 mi West 6.9 mph - N/A   Unknown
2:16 PM - - N/A% 29.75 in - West 8.1 mph - N/A   Unknown
2:36 PM 57.2 °F 51.8 °F 82% 29.76 in 10.0 mi West 5.8 mph - N/A   Overcast
2:56 PM 57.2 °F 48.2 °F 72% 29.76 in 10.0 mi SW 5.8 mph - N/A   Overcast
3:16 PM 57.2 °F 46.4 °F 67% 29.76 in 10.0 mi SW 6.9 mph - N/A   Overcast
3:36 PM 57.2 °F 46.4 °F 67% 29.76 in 10.0 mi West 3.5 mph - N/A   Overcast
3:56 PM 55.4 °F 46.4 °F 72% 29.76 in 10.0 mi SE 5.8 mph - N/A   Overcast
4:16 PM 55.4 °F 48.2 °F 77% 29.76 in 10.0 mi NE 3.5 mph - N/A   Overcast
4:36 PM 55.4 °F 48.2 °F 77% 29.75 in 10.0 mi Calm Calm - N/A   Overcast
4:56 PM 55.4 °F 48.2 °F 77% 29.74 in 10.0 mi NNW 3.5 mph - N/A   Overcast
5:16 PM 55.4 °F 51.8 °F 88% 29.74 in 10.0 mi Calm Calm - N/A   Overcast
5:36 PM 55.4 °F 51.8 °F 88% 29.74 in 10.0 mi NNE 4.6 mph - N/A   Overcast
5:56 PM 53.6 °F 51.8 °F 94% 29.74 in 10.0 mi NE 4.6 mph - N/A   Overcast
6:16 PM 55.4 °F 51.8 °F 88% 29.73 in 10.0 mi Calm Calm - N/A   Overcast
6:36 PM 53.6 °F 48.2 °F 82% 29.72 in 10.0 mi East 8.1 mph - N/A   Overcast
6:56 PM 53.6 °F 48.2 °F 82% 29.71 in 10.0 mi East 8.1 mph - N/A   Overcast
7:16 PM 51.8 °F 46.4 °F 82% 29.71 in 10.0 mi ESE 8.1 mph - N/A   Overcast
7:36 PM 53.6 °F 46.4 °F 77% 29.71 in 10.0 mi East 6.9 mph - N/A   Overcast
7:56 PM 53.6 °F 46.4 °F 77% 29.72 in 10.0 mi SSW 3.5 mph - N/A   Overcast
8:16 PM 51.8 °F 48.2 °F 88% 29.73 in 7.0 mi Calm Calm - N/A   Overcast
8:36 PM 51.8 °F 48.2 °F 88% 29.72 in 8.0 mi Calm Calm - N/A   Overcast
8:56 PM 51.8 °F 46.4 °F 82% 29.72 in 10.0 mi Calm Calm - N/A   Overcast
9:16 PM 51.8 °F 48.2 °F 88% 29.72 in 10.0 mi Calm Calm - N/A   Overcast
9:36 PM 50.0 °F 48.2 °F 94% 29.73 in 10.0 mi Calm Calm - N/A   Overcast
9:56 PM 50.0 °F 48.2 °F 94% 29.73 in 10.0 mi East 6.9 mph - N/A   Overcast
10:16 PM 50.0 °F 48.2 °F 94% 29.73 in 10.0 mi East 4.6 mph - N/A   Overcast
10:36 PM 50.0 °F 48.2 °F 94% 29.74 in 10.0 mi Calm Calm - N/A   Overcast
10:56 PM 50.0 °F 48.2 °F 94% 29.74 in 10.0 mi Calm Calm - N/A   Overcast
11:16 PM 50.0 °F 48.2 °F 94% 29.75 in 10.0 mi Calm Calm - N/A   Overcast
11:36 PM 48.2 °F 48.2 °F 100% 29.76 in 10.0 mi Calm Calm - N/A   Overcast
11:56 PM 48.2 °F 48.2 °F 100% 29.76 in 10.0 mi Calm Calm - N/A   Overcast